Weather History for K1V4 - February, 2012

Change the Weather History Date:

Saturday, February 11, 2012

  Actual Average Record
Temperature  
Mean Temperature 21 °F 18 °F  
Max Temperature 34 °F 30 °F 55 °F (1966)
Min Temperature 8 °F 7 °F -29 °F (1979)
Degree Days  
Heating Degree Days 44 47  
Month to date heating degree days 464 523  
Since 1 July heating degree days 4477 4972  
Cooling Degree Days 0 0  
Month to date cooling degree days 0  
Year to date cooling degree days 0  
Moisture  
Dew Point 15 °F    
Average Humidity 68    
Maximum Humidity 81    
Minimum Humidity 54    
Precipitation  
Precipitation 0.00 in 0.08 in 0.68 in (1960)
Month to date precipitation 0.11 0.90  
Year to date precipitation 2.79 3.41  
Sea Level Pressure  
Sea Level Pressure 29.77 in    
Wind  
Wind Speed - (North)    
Max Wind Speed -    
Max Gust Speed -    
T = Trace of Precipitation, MM = Missing Value Source: NWS Daily Summary

Daily Weather History Graph

Daily Weather History Graph

Search for Another Location

Airport or City:

Trip Planner

Search our weather history database for the weather conditions in past years. The results will help you decide how hot, cold, wet, or windy it might be!

Date:

Astronomy

Feb. 11, 2012 Rise Set
Actual Time 6:54 AM EST 5:10 PM EST
Civil Twilight 6:24 AM EST 5:40 PM EST
Nautical Twilight 5:50 AM EST 6:15 PM EST
Astronomical Twilight 5:16 AM EST 6:48 PM EST
Moon 10:10 PM EST (2/11) 8:22 AM EST (2/11)
Length of Visible Light 11h 16m
Length of Day
10h 16m
Waning Gibbous, 82% of the Moon is Illuminated
Feb 11
Waning Gibbous
Feb 14
Last Quarter
Feb 21
New
Feb 29
First Quarter
Mar 8
Full

Hourly Weather History & Observations

Time (EST) Temp. Dew Point Humidity Pressure Visibility Wind Dir Wind Speed Gust Speed Precip Events Conditions
12:54 AM 28.9 °F 21.0 °F 72% 29.86 in - North - - N/A   Unknown
1:54 AM 28.9 °F 21.9 °F 75% 29.85 in - North - - N/A   Unknown
2:54 AM 28.0 °F 21.9 °F 78% 29.84 in - North - - N/A   Unknown
3:54 AM 27.0 °F 21.9 °F 81% 29.83 in - North - - N/A   Unknown
4:54 AM 27.0 °F 21.9 °F 81% 29.82 in - North - - N/A   Unknown
5:54 AM 26.1 °F 21.9 °F 84% 29.81 in - North - - N/A   Unknown
6:54 AM 26.1 °F 21.0 °F 81% 29.81 in - North - - N/A   Unknown
7:54 AM 26.1 °F 21.9 °F 84% 29.81 in - North - - N/A   Unknown
8:54 AM 28.0 °F 21.9 °F 78% 29.81 in - North - - N/A   Unknown
9:54 AM 30.0 °F 21.0 °F 69% 29.80 in - North - - N/A   Unknown
10:54 AM 33.1 °F 19.0 °F 56% 29.76 in - North - - N/A   Unknown
11:54 AM 32.0 °F 19.9 °F 61% 29.73 in - North - - N/A   Unknown
12:54 PM 32.0 °F 18.0 °F 56% 29.70 in - North - - N/A   Unknown
1:54 PM 30.9 °F 17.1 °F 57% 29.70 in - North - - N/A   Unknown
2:54 PM 28.9 °F 16.0 °F 58% 29.70 in - North - - N/A   Unknown
3:54 PM 26.1 °F 14.0 °F 60% 29.70 in - North - - N/A   Unknown
4:54 PM 24.1 °F 12.0 °F 60% 29.70 in - North - - N/A   Unknown
5:54 PM 21.0 °F 10.0 °F 63% 29.70 in - North - - N/A   Unknown
6:54 PM 18.0 °F 8.1 °F 65% 29.72 in - North - - N/A   Unknown
7:54 PM 14.0 °F 6.1 °F 71% 29.73 in - North - - N/A   Unknown
8:54 PM 12.0 °F 3.9 °F 70% 29.75 in - North - - N/A   Unknown
9:54 PM 10.9 °F 3.9 °F 73% 29.75 in - North - - N/A   Unknown
10:54 PM 10.0 °F 1.0 °F 67% 29.75 in - North - - N/A   Unknown
11:54 PM 8.1 °F -0.9 °F 67% 29.76 in - North - - N/A   Unknown